Location: Caltech
(34.1382°N, 118.1253°W)
Time: 09:51:50
(UTC-07:00)

JAS-1B - Visible Passes

Search period start: 30 September 2016 00:00
Search period end: 10 October 2016 00:00
Orbit: 912 x 1743 km, 99.0° (Epoch: 29 September)

Date Brightness Start Highest point End Pass type
(mag) Time Alt. Az. Time Alt. Az. Time Alt. Az.
30 Sep 10.8 03:20:32 10° NE 03:21:35 10° NE 03:22:37 10° NE visible
30 Sep 8.9 05:01:18 10° SE 05:09:37 52° ENE 05:18:56 10° N visible
30 Sep 10.5 20:35:47 10° NNW 20:40:42 16° NW 20:45:19 10° W visible
01 Oct 10.5 03:35:31 10° E 03:40:01 15° NE 03:44:39 10° NNE visible
01 Oct 8.5 05:19:54 10° SSE 05:28:30 68° ENE 05:38:12 10° N visible
01 Oct 8.6 19:01:57 10° N 19:10:55 59° WNW 19:18:31 10° SSW visible
01 Oct 10.7 20:56:55 10° NW 20:59:10 11° NW 21:01:21 10° WNW visible
02 Oct 10.2 03:52:29 10° E 03:58:33 20° NE 04:04:55 10° NNE visible
02 Oct 8.2 05:38:43 10° SSE 05:47:29 87° ENE 05:57:23 10° NNW visible
02 Oct 9.1 19:21:17 10° N 19:29:45 44° WNW 19:37:01 10° SW visible
03 Oct 9.9 04:10:01 10° ESE 04:17:09 27° ENE 04:24:44 10° N visible
03 Oct 8.1 05:57:46 10° S 06:06:32 74° WSW 06:16:25 10° NNW visible
03 Oct 9.5 19:40:45 10° N 19:48:28 33° WNW 19:55:14 10° WSW visible
04 Oct 9.5 04:27:56 10° ESE 04:35:51 35° ENE 04:44:20 10° N visible
04 Oct 8.2 06:17:03 10° S 06:25:40 57° W 06:35:21 10° NNW visible
04 Oct 9.9 20:00:23 10° N 20:07:08 25° WNW 20:13:10 10° WSW visible
05 Oct 9.1 04:46:09 10° SE 04:54:37 45° ENE 05:03:47 10° N visible
05 Oct 10.3 20:20:19 10° NNW 20:25:42 18° NW 20:30:40 10° W visible
06 Oct 10.6 03:21:45 10° ENE 03:25:11 12° NE 03:28:40 10° NNE visible
06 Oct 8.7 05:04:37 10° SE 05:13:28 59° ENE 05:23:06 10° N visible
06 Oct 8.2 18:46:53 10° N 18:55:40 69° WNW 19:02:57 10° SSW visible
06 Oct 10.5 20:40:51 10° NNW 20:44:12 13° NW 20:47:23 10° WNW visible
07 Oct 10.4 03:38:09 10° E 03:43:41 17° NE 03:49:20 10° NNE visible
07 Oct 8.4 05:23:19 10° SSE 05:32:24 76° ENE 05:42:20 10° N visible
07 Oct 8.7 19:06:10 10° N 19:14:32 51° WNW 19:21:34 10° SW visible
08 Oct 10.1 03:55:25 10° ESE 04:02:15 23° ENE 04:09:20 10° NNE visible
08 Oct 8.2 05:42:15 10° SSE 05:51:25 85° WSW 06:01:26 10° NNW visible
08 Oct 9.2 19:25:33 10° N 19:33:18 38° WNW 19:39:57 10° SW visible
09 Oct 9.7 04:13:09 10° ESE 04:20:56 30° ENE 04:29:02 10° N visible
09 Oct 8.2 06:01:24 10° S 06:10:31 67° W 06:20:26 10° NNW visible
09 Oct 9.6 19:45:07 10° N 19:52:00 28° WNW 19:58:02 10° WSW visible
